Regional Weather Roundup
Issued by NWS

Home | Current Version | Previous Version | Text Only | Print | Product List | Glossary Off
Versions: 1 2 3 4 5 6 7 8 9 10 11 12 13 14 15 16 17 18 19 20 21 22 23 24 25 26 27 28 29 30 31 32 33 34 35 36 37 38 39 40 41 42 43 44 45 46 47 48 49 50

314
ASUS43 KFSD 140602
RWRSD

WEATHER ROUNDUP FOR SOUTH DAKOTA
NATIONAL WEATHER SERVICE SIOUX FALLS SD
1200 AM CST SUN FEB 14 2016

NOTE: "FAIR" INDICATES FEW OR NO CLOUDS BELOW 12,000 FEET WITH NO
SIGNIFICANT WEATHER AND/OR OBSTRUCTIONS TO VISIBILITY.


SDZ001>005-009-010-012>017-140700-
NORTHWEST AND NORTH CENTRAL SOUTH DAKOTA

CITY           SKY/WX    TMP DP  RH WIND       PRES   REMARKS
BUFFALO          N/A     36  31  82 W24       29.77F
FAITH            N/A     35  30  82 NW20      29.80R WCI  24
MOBRIDGE       LGT SNOW  19  16  88 SE12      29.82F VSB 1   WCI   7
$$

SDZ012>016-024>037-041>051-057-063-072>074-140700-
SOUTHWEST AND SOUTH CENTRAL SOUTH DAKOTA

CITY           SKY/WX    TMP DP  RH WIND       PRES   REMARKS
RAPID CTY ARPT CLEAR     39  30  70 NW25      29.87F
PIERRE         LGT SNOW  25  23  92 SE9       29.83F FOG     WCI  15
CUSTER         CLOUDY    33  22  63 NW18G32   29.89S WCI  22
ELLSWORTH AFB  CLEAR     39  30  71 NW26G33   29.85F
PHILIP         CLOUDY    36  33  89 W12       29.84S
PINE RIDGE     PTCLDY    35  30  82 NW12      29.93R WCI  27
WINNER         LGT SNOW  31  25  78 SW9       29.81F WCI  23
$$

SDZ004>011-016>023-039-040-140700-
NORTHEAST SOUTH DAKOTA

CITY           SKY/WX    TMP DP  RH WIND       PRES   REMARKS
ABERDEEN       SNOW      15  10  80 S20G28    29.98R VSB 1/2 WCI  -2
WATERTOWN      LGT SNOW  12   6  77 SE18G28   29.99F WCI  -6
BROOKINGS      LGT SNOW  11   7  84 S21G26    30.04F FOG     WCI  -8
SISSETON         N/A     11   7  84 S24       30.04F WCI  -9
$$

SDZ017-020-022-023-036>040-048>070-140700-
SOUTHEAST SOUTH DAKOTA

CITY           SKY/WX    TMP DP  RH WIND       PRES   REMARKS
SIOUX FALLS    FLURRIES  13   7  77 S16       30.07F WCI  -3
HURON          MIX PCPN  14   8  77 SE21G31   29.96F WCI  -4
MITCHELL       CLOUDY    16  10  77 SE23G30   29.97F WCI  -2
YANKTON        CLOUDY    16   7  67 SE20G26   30.03F WCI  -1
$$

ABBREVIATIONS USED IN REMARKS
   TC - TEMPERATURE IN CELSIUS
  WCI - WIND CHILL INDEX
   HX - HEAT INDEX
  VSB - VISIBILITY





USA.gov is the U.S. government's official web portal to all federal, state and local government web resources and services.